Starlink 30203

operational
NORAD ID: 57498 Int'l Des: 2023-113 Owner: SPXS Country: US Constellation: starlink
LEOCIRCULAR

About Starlink 30203

Description loading...

Live Position

Loading 3D Globe...

Upcoming Passes

Altitude History

Altitude vs Time

uPlot chart will show altitude changes over time

Two-Line Element Set

1 57498U 23113D 25308.46662676 .00000198 00000-0 29757-4 0 9996
2 57498 43.0047 337.7459 0001216 266.4519 93.6184 15.02537129124849
Epoch: Nov 4, 2025 • Age: 12 hours

Current Status

Altitude 565.7 km
Velocity 7.58 km/s
Sub-Earth Point -27.71°S, 154.29°E
Launch Date Aug 7, 2023
Age 2.2 years
Type internet

Technical Details

Classification Payload
Mass 730.00 kg
Dry Mass 700.00 kg
Total Mass 730.00 kg
Length 0.30 m
Diameter 4.10 m
Span 29.00 m
Shape Box + pan
Manufacturer SPXS
Bus Type Starlink V2M
Phase Status In Orbit
Owner/State SPXS/US

Large Constellations

Loading constellations...